TimeEDT,TemperatureF,Dew PointF,Humidity,Sea Level PressureIn,VisibilityMPH,Wind Direction,Wind SpeedMPH,Gust SpeedMPH,PrecipitationIn,Events,Conditions,WindDirDegrees,DateUTC
12:54 AM,64.0,57.9,80,30.23,10.0,SSW,6.9,-,N/A,,Clear,210,2013-08-26 04:54:00
1:54 AM,64.9,57.0,75,30.22,10.0,SSW,4.6,-,N/A,,Clear,210,2013-08-26 05:54:00
2:54 AM,63.0,57.0,81,30.20,10.0,SSW,6.9,-,N/A,,Clear,210,2013-08-26 06:54:00
3:54 AM,64.0,57.0,78,30.19,10.0,SW,5.8,-,N/A,,Clear,220,2013-08-26 07:54:00
4:54 AM,63.0,55.9,78,30.18,10.0,SW,5.8,-,N/A,,Clear,220,2013-08-26 08:54:00
5:54 AM,63.0,55.9,78,30.20,10.0,SW,6.9,-,N/A,,Clear,220,2013-08-26 09:54:00
6:54 AM,64.0,57.0,78,30.20,10.0,SSW,6.9,-,N/A,,Clear,210,2013-08-26 10:54:00
7:54 AM,66.0,57.9,75,30.22,10.0,SW,6.9,-,N/A,,Clear,220,2013-08-26 11:54:00
8:54 AM,69.1,59.0,70,30.21,10.0,SW,5.8,-,N/A,,Clear,230,2013-08-26 12:54:00
9:54 AM,73.9,60.1,62,30.19,10.0,West,8.1,-,N/A,,Clear,260,2013-08-26 13:54:00
10:54 AM,78.1,61.0,56,30.19,10.0,WSW,6.9,-,N/A,,Clear,250,2013-08-26 14:54:00
11:54 AM,81.0,61.0,50,30.18,10.0,WSW,12.7,17.3,N/A,,Clear,250,2013-08-26 15:54:00
12:54 PM,82.0,61.0,49,30.14,10.0,SW,6.9,17.3,N/A,,Clear,230,2013-08-26 16:54:00
1:54 PM,82.9,60.1,46,30.13,10.0,SW,12.7,18.4,N/A,,Clear,230,2013-08-26 17:54:00
2:54 PM,82.9,61.0,47,30.10,10.0,WSW,13.8,19.6,N/A,,Clear,240,2013-08-26 18:54:00
3:54 PM,84.9,62.1,46,30.07,10.0,WSW,13.8,20.7,N/A,,Clear,240,2013-08-26 19:54:00
4:54 PM,82.9,64.0,53,30.05,10.0,SW,11.5,18.4,N/A,,Clear,230,2013-08-26 20:54:00
5:54 PM,82.9,63.0,51,30.04,10.0,SW,10.4,-,N/A,,Clear,230,2013-08-26 21:54:00
6:54 PM,81.0,66.0,60,30.04,10.0,WSW,8.1,-,N/A,,Clear,250,2013-08-26 22:54:00
7:54 PM,80.1,64.9,60,30.04,10.0,WSW,5.8,-,N/A,,Scattered Clouds,240,2013-08-26 23:54:00
8:54 PM,75.9,66.0,71,30.04,10.0,SSW,6.9,-,N/A,,Scattered Clouds,200,2013-08-27 00:54:00
9:54 PM,75.9,66.0,71,30.03,10.0,SSW,5.8,-,N/A,,Mostly Cloudy,210,2013-08-27 01:54:00
10:54 PM,75.0,66.9,76,30.02,10.0,SW,6.9,-,N/A,,Partly Cloudy,230,2013-08-27 02:54:00
11:54 PM,75.0,66.9,76,30.01,9.0,WSW,8.1,-,N/A,,Mostly Cloudy,250,2013-08-27 03:54:00